Location: Gull Harbor
(47.1000°N, 122.9000°W)
Time: 17:13:49
(UTC-07:00)

Envisat - Visible Passes

Search period start: 22 March 2019 00:00
Search period end: 01 April 2019 00:00
Orbit: 764 x 766 km, 98.2° (Epoch: 22 March)

Date Brightness Start Highest point End Pass type
(mag) Time Alt. Az. Time Alt. Az. Time Alt. Az.
22 Mar 3.7 20:01:03 10° S 20:06:03 60° W 20:11:07 10° NNW visible
23 Mar 5.8 21:05:28 10° SW 21:08:49 18° W 21:12:11 10° NW visible
24 Mar 4.7 20:27:04 10° SSW 20:31:43 36° W 20:36:24 10° NNW visible
26 Mar 5.6 20:53:36 10° SW 20:57:28 22° W 21:01:22 10° NW visible
27 Mar 4.3 20:15:36 10° S 20:20:26 44° W 20:25:19 10° NNW visible
28 Mar 6.0 21:21:06 10° WSW 21:23:20 13° W 21:25:35 10° WNW visible
29 Mar 5.3 20:41:53 10° SSW 20:46:09 27° W 20:50:26 10° NW visible
30 Mar 3.9 20:04:11 10° S 20:09:10 55° W 20:14:11 10° NNW visible
31 Mar 5.9 21:08:52 10° SW 21:11:58 16° W 21:15:04 10° NW visible
